Location: Gombori
(14.9797°N, 2.9419°W)
Time: 12:47:26
(UTC+00:00)

METEOR 2-17 DEB - Visible Passes

Search period start: 29 May 2022 00:00
Search period end: 08 June 2022 00:00
Orbit: 897 x 934 km, 82.5° (Epoch: 27 May)

Date Brightness Start Highest point End Pass type
(mag) Time Alt. Az. Time Alt. Az. Time Alt. Az.
29 May ? 21:45:11 10° N 21:46:55 20° N 21:46:55 20° N visible
30 May ? 21:52:33 10° N 21:54:34 23° NNW 21:54:34 23° NNW visible
31 May ? 22:00:05 10° NNW 22:02:15 23° NNW 22:02:15 23° NNW visible
01 Jun ? 20:25:19 10° NE 20:26:31 13° NE 20:26:31 13° NE visible
01 Jun ? 22:07:47 10° NNW 22:09:56 21° NW 22:09:56 21° NW visible
02 Jun ? 20:31:45 10° NNE 20:34:14 20° NE 20:34:14 20° NE visible
02 Jun ? 22:15:41 10° NW 22:17:39 18° NW 22:17:39 18° NW visible
03 Jun ? 20:38:33 10° NNE 20:41:59 29° NE 20:41:59 29° NE visible
03 Jun ? 22:23:57 10° NW 22:25:24 14° WNW 22:25:24 14° WNW visible
04 Jun ? 20:45:33 10° N 20:49:44 41° NE 20:49:44 41° NE visible
05 Jun ? 20:52:44 10° N 20:57:32 60° NNE 20:57:32 60° NNE visible
06 Jun ? 21:00:04 10° N 21:05:22 72° NW 21:05:22 72° NW visible
07 Jun ? 19:27:58 10° ENE 19:29:04 11° E 19:29:48 10° E visible
07 Jun ? 21:07:32 10° NNW 21:13:12 54° W 21:13:13 54° W visible
